Theta_e
313 313 313 313 315 316 318 319 318 322 323 322 324 322 320 323 325 322 323 322 319 332 340 341 340 340 343 345 349 349 347 351 351 345 346 349 344 345 346 345 344 338 335 335 336 337 338 337 337 336 335 334 334 333 326 318 313 311 311 312 312 314 317 320 323 325 328 331 332 334 334 334 334 333 333 334 333 334 335 335 336 336 336 336 336 336 336 336 335 334 334 334 333 332 327 324 326
313 313 313 314 316 318 319 322 323 325 323 320 322 323 323 324 324 322 323 322 325 341 344 342 343 344 345 343 345 346 348 349 348 348 351 348 345 347 346 347 344 338 334 333 335 336 337 337 336 336 335 335 334 333 329 322 316 312 311 311 312 314 317 320 323 326 328 330 333 334 333 333 333 333 333 333 333 333 333 333 334 334 335 334 335 335 334 333 331 330 331 331 331 329 324 324 327
313 313 313 314 316 318 320 322 326 326 322 319 319 323 324 322 324 320 327 334 337 345 344 342 346 346 346 351 351 349 350 347 348 349 350 349 348 348 348 348 344 339 333 331 334 335 336 336 336 336 335 335 333 333 331 327 319 313 311 311 312 313 316 319 322 325 327 329 332 332 332 332 332 332 333 334 334 333 332 332 332 331 331 331 332 331 329 327 323 319 319 321 320 318 321 326 329
312 313 311 314 317 319 322 324 329 328 322 321 319 323 324 321 324 320 326 342 346 345 343 344 348 345 348 358 354 350 350 348 350 349 349 349 349 349 349 348 344 339 334 331 333 335 336 336 336 335 335 334 333 333 333 330 323 314 311 311 312 313 315 317 321 324 325 327 329 330 330 331 332 333 334 334 334 334 332 330 328 326 326 326 326 324 322 319 314 310 310 311 310 312 322 328 329
312 312 313 317 319 320 322 322 326 324 319 322 322 324 325 321 323 319 319 336 345 345 342 345 349 346 348 352 349 350 351 348 349 349 349 350 350 350 349 348 343 339 335 332 333 335 335 335 335 334 335 334 333 333 333 332 326 317 311 311 312 312 313 316 319 321 323 324 327 328 329 331 332 333 334 335 334 333 329 326 322 320 320 319 317 315 313 310 308 308 308 308 308 315 325 328 329
311 312 317 319 319 318 320 320 321 321 318 322 324 324 324 320 320 317 319 331 339 339 341 345 347 348 349 350 348 349 349 347 349 349 349 350 350 350 348 345 342 339 335 332 333 334 334 335 335 334 335 334 334 333 333 331 328 319 312 311 312 312 313 314 317 319 320 322 325 326 328 330 331 333 334 334 332 330 327 322 318 315 314 312 310 309 308 308 308 307 308 307 309 320 327 328 329
310 313 318 318 318 317 320 323 322 322 320 321 322 322 321 319 317 317 320 331 339 339 343 346 344 351 353 350 349 348 348 346 347 349 350 350 349 349 346 344 341 338 335 333 334 334 334 334 334 334 334 333 333 332 332 331 329 323 313 310 311 312 313 313 315 318 319 320 322 325 327 329 331 333 332 332 330 327 324 319 315 312 310 309 308 308 308 308 308 307 308 307 313 324 327 328 328
311 315 316 318 321 317 319 321 319 320 320 318 318 319 320 318 319 318 318 328 341 342 346 348 345 354 355 350 350 349 348 346 347 350 349 349 349 347 345 344 342 338 334 333 333 333 333 333 334 334 334 333 333 332 332 331 330 325 315 310 311 312 313 313 313 316 318 320 321 324 326 329 332 333 332 331 327 323 319 315 312 310 309 308 309 309 308 308 308 308 307 309 319 327 328 328 328
312 316 315 318 321 318 319 319 317 318 318 316 316 316 317 317 318 318 318 321 332 341 347 349 346 354 353 348 348 348 348 348 348 349 349 349 348 347 346 344 343 339 334 333 333 333 332 332 333 333 333 333 332 332 331 331 330 327 317 311 311 312 313 313 313 314 316 319 321 322 324 327 331 331 331 329 323 320 315 312 311 309 309 309 309 309 309 308 308 309 310 315 324 328 328 329 329
314 317 316 317 319 318 319 319 319 318 317 316 316 316 317 317 317 317 317 317 328 344 348 348 348 352 351 348 348 347 348 348 347 349 348 348 348 347 345 343 342 338 334 333 333 332 332 333 332 333 333 332 332 331 331 331 330 327 318 311 310 312 313 314 313 313 315 317 320 320 320 323 325 326 329 326 321 318 313 311 310 309 309 309 309 309 309 309 309 311 315 320 325 327 328 329 329
317 317 315 317 317 318 318 318 319 319 317 316 316 316 317 318 317 316 316 319 335 349 349 348 350 350 349 349 347 347 347 348 347 348 348 348 346 343 342 340 338 336 333 333 333 333 332 332 332 332 331 331 331 330 330 329 327 326 319 311 310 311 313 313 313 313 313 315 317 318 318 320 322 323 326 325 319 316 312 310 309 309 310 309 309 309 309 309 309 313 319 324 326 327 329 329 329
318 317 317 319 318 318 318 318 318 318 317 316 316 316 318 317 317 317 316 325 343 349 348 348 350 349 350 349 346 346 347 347 347 348 348 346 343 339 337 336 334 333 333 333 333 333 332 331 331 330 329 329 329 328 327 326 326 325 319 312 309 310 312 313 314 313 313 313 314 315 317 320 321 321 323 322 318 315 312 310 309 309 309 309 310 309 310 310 310 315 323 326 327 328 329 330 329
320 317 317 319 318 318 317 316 317 319 318 317 316 317 318 315 316 316 318 332 346 348 348 347 348 348 349 349 347 346 346 347 347 348 347 345 342 340 338 338 337 335 333 334 334 333 332 331 329 327 327 326 326 326 325 324 325 324 318 311 309 310 311 313 313 313 314 313 313 314 316 318 318 318 319 320 317 313 311 310 310 310 310 310 310 310 310 310 311 317 324 327 326 327 329 330 328
320 317 316 317 316 317 316 315 317 317 318 317 315 316 316 316 316 315 323 342 347 346 347 347 347 349 350 349 348 347 346 347 347 348 347 344 343 342 342 343 343 340 335 334 334 333 332 330 328 325 324 323 323 323 323 323 324 323 318 311 309 309 310 312 313 313 314 314 313 313 315 316 317 317 318 317 314 312 310 310 310 310 310 310 310 310 310 310 311 316 324 327 326 327 328 329 328
319 318 316 316 315 315 314 316 317 315 316 316 315 315 317 325 323 315 327 344 346 345 347 348 346 349 351 349 349 347 346 347 347 347 346 345 344 343 343 344 344 343 337 334 334 333 331 329 327 323 321 321 321 321 321 321 322 320 316 311 309 309 310 311 312 312 313 314 314 313 313 314 316 316 317 317 315 313 311 310 310 310 310 311 311 310 310 310 311 315 322 326 327 327 328 329 327
318 317 314 314 315 315 314 314 316 314 316 316 316 315 318 335 335 327 335 341 346 347 347 347 344 346 349 348 349 347 347 347 347 347 346 345 344 343 344 344 344 344 338 334 334 333 331 328 325 322 319 319 319 319 319 319 319 319 315 311 310 309 310 310 311 312 312 313 313 314 313 313 314 315 317 317 317 315 312 311 310 311 311 311 311 311 310 310 311 313 320 326 327 328 329 329 326
317 316 315 314 314 314 315 315 316 315 317 316 316 314 316 338 345 341 343 342 347 347 345 347 345 345 347 348 349 348 347 347 346 346 346 345 344 344 344 344 345 344 339 334 334 333 330 326 322 320 319 318 318 317 317 317 318 316 314 312 310 309 309 309 310 311 311 312 313 314 313 313 313 314 316 316 317 316 315 313 311 311 311 311 311 311 310 310 310 312 318 323 326 328 329 329 327
319 318 316 316 314 313 315 317 316 315 317 315 315 314 314 336 348 345 347 347 348 347 347 348 347 348 348 349 348 348 348 347 346 347 346 345 344 344 345 345 345 343 338 335 334 333 330 325 321 319 318 318 317 317 317 316 317 315 314 312 311 310 310 310 310 310 311 311 312 313 313 313 314 313 314 315 317 317 317 315 314 313 311 312 311 311 310 310 310 310 314 320 325 327 329 330 329
319 318 316 316 314 312 313 315 315 314 316 314 315 315 315 334 348 344 349 350 348 350 350 348 349 349 348 349 348 348 348 347 347 347 347 345 345 345 345 345 344 342 337 335 335 332 329 324 321 319 318 317 316 316 317 316 316 314 314 313 312 311 310 310 310 310 310 311 311 312 312 313 313 313 313 314 316 317 318 318 317 316 314 313 312 311 311 310 310 309 311 316 321 326 329 331 330
319 318 317 317 314 312 313 314 314 314 315 314 314 315 316 328 342 345 348 349 349 351 351 349 349 349 349 349 348 348 348 347 347 347 347 346 346 346 345 343 343 340 336 335 335 332 329 323 321 319 317 316 315 316 316 315 314 314 314 313 313 312 311 311 311 311 310 311 311 311 311 312 312 313 313 313 314 315 317 318 319 318 316 315 314 313 312 310 309 309 310 312 316 322 328 331 330
317 318 319 317 313 313 315 314 315 315 315 315 314 317 316 320 338 346 347 350 351 349 348 348 348 349 349 348 348 348 348 347 347 348 347 346 346 345 344 342 340 338 335 335 335 333 329 323 321 319 317 316 314 314 314 314 313 313 313 313 314 313 313 313 312 312 312 311 311 311 311 311 312 314 316 314 312 313 315 316 319 320 319 317 316 316 314 312 311 310 311 312 313 319 327 330 330
315 316 316 316 314 314 316 315 316 315 315 315 315 316 317 327 343 346 344 349 351 348 348 346 346 347 347 347 348 348 349 348 348 348 347 346 346 345 343 341 338 337 335 336 336 333 328 323 320 318 317 317 315 315 314 314 314 314 315 315 315 316 316 317 316 316 314 313 313 312 312 313 315 320 323 321 317 315 314 314 316 319 321 320 318 317 317 316 314 313 313 314 314 318 326 328 328
316 316 314 314 315 314 315 316 316 315 315 314 315 316 321 337 347 343 342 347 346 347 349 348 346 346 346 347 348 349 350 349 349 348 346 346 345 344 343 341 339 338 337 338 335 331 326 322 321 320 320 320 320 319 318 318 319 319 320 321 321 323 323 323 323 322 321 320 320 321 321 321 323 326 327 328 328 326 323 320 318 317 318 319 320 319 319 318 317 317 316 316 316 319 324 325 327
316 316 314 315 315 313 315 316 315 316 315 314 315 315 322 338 344 342 345 347 347 348 349 349 348 347 348 348 348 349 350 350 349 348 346 346 345 344 343 342 341 340 340 339 335 331 327 322 322 323 324 326 325 324 324 324 325 326 327 327 327 329 329 330 329 328 328 328 328 329 330 329 330 329 328 329 331 333 332 331 328 326 321 317 317 319 320 320 319 318 319 319 318 320 322 324 329
315 315 314 315 315 315 316 316 316 316 316 316 316 318 327 339 342 345 349 350 349 349 349 349 348 348 348 348 349 349 350 349 348 347 346 345 345 344 343 343 342 341 341 340 337 335 329 324 327 330 330 331 330 329 329 329 330 330 331 331 331 332 332 333 333 332 332 331 331 331 332 333 333 333 331 331 331 332 333 334 333 333 331 323 316 316 318 320 321 320 319 319 319 320 321 324 331
315 314 314 315 315 316 316 315 316 315 316 316 316 328 340 343 344 346 349 351 349 349 349 349 348 348 348 348 349 349 349 347 346 345 344 344 344 344 344 343 342 341 342 341 340 338 333 330 334 335 333 333 334 333 332 332 332 332 333 333 333 334 334 334 334 334 334 334 334 333 333 334 334 334 334 334 333 332 332 333 334 334 335 331 322 314 315 319 321 322 321 320 319 320 320 325 331
315 315 314 315 315 315 315 314 316 315 317 315 316 336 345 338 345 349 348 350 349 349 349 349 349 348 348 348 348 348 347 346 345 344 344 343 341 343 344 343 343 342 342 342 341 340 338 336 338 337 335 335 335 335 334 334 334 334 335 335 335 335 335 335 335 334 335 335 335 334 334 334 334 335 335 334 332 331 332 333 334 334 334 334 330 321 314 316 319 322 323 323 322 321 320 327 334
314 315 314 314 313 313 314 313 315 315 316 316 317 333 335 333 349 351 349 351 349 349 349 349 349 348 348 347 348 347 346 346 345 343 342 338 338 344 344 343 343 342 343 342 341 341 341 339 339 338 336 336 336 336 336 336 336 336 336 335 336 336 335 335 335 335 335 335 335 334 333 333 333 333 333 332 330 330 332 333 333 333 333 335 335 331 322 316 316 320 322 323 324 324 323 328 334
311 313 314 315 314 314 314 313 315 314 316 317 317 322 321 329 349 349 349 351 349 350 350 349 349 348 348 348 348 347 347 347 343 340 339 338 340 344 344 344 344 343 343 342 342 342 341 340 339 339 337 337 336 336 336 336 336 336 336 336 336 335 335 335 335 335 334 334 334 334 333 333 332 332 331 331 330 329 330 332 333 333 333 334 335 335 331 322 315 316 319 321 323 324 324 327 333
311 312 313 315 314 314 315 313 315 314 316 316 315 318 316 323 343 349 350 350 349 350 349 349 349 348 348 348 348 348 347 346 343 341 340 340 342 344 345 344 344 344 343 342 342 342 341 340 339 339 338 337 337 336 337 337 336 336 336 336 336 335 335 335 335 334 334 334 334 333 332 332 332 331 331 330 330 330 330 332 332 333 333 334 335 335 335 330 323 319 319 319 320 321 322 324 328
312 312 313 314 313 317 318 312 314 315 316 316 315 317 317 326 342 349 349 349 349 349 349 349 347 347 348 348 348 347 347 346 343 342 341 342 343 344 345 344 344 344 342 342 342 342 341 341 340 339 338 337 337 337 337 337 337 337 336 336 335 334 334 333 333 333 332 333 333 333 332 332 332 331 331 331 331 332 332 331 332 332 333 334 335 335 336 335 332 329 326 322 319 319 319 320 322
312 312 315 316 311 317 320 313 313 316 316 315 315 316 316 328 342 346 347 348 348 348 349 348 345 344 345 347 348 346 347 345 343 343 342 343 342 343 343 342 343 342 342 342 341 341 341 341 340 339 338 337 337 337 337 336 336 336 336 335 334 333 333 333 333 332 331 331 331 331 331 332 331 331 332 332 332 331 331 331 331 332 333 333 334 335 335 335 334 333 332 329 326 323 320 318 318
315 313 317 317 311 314 317 313 312 314 316 314 315 319 319 325 337 344 346 346 347 347 347 347 344 344 344 346 346 345 346 344 343 342 342 342 341 342 341 340 341 341 341 341 340 340 340 340 339 339 338 337 337 337 336 336 336 335 334 334 333 333 333 333 333 332 331 331 331 331 331 331 331 331 331 331 331 331 331 331 331 331 332 333 334 334 334 335 334 334 333 333 332 331 327 321 319
315 312 314 315 313 314 314 315 313 311 316 316 315 319 319 322 334 341 342 344 347 347 346 346 345 344 344 345 345 344 344 343 343 342 341 341 341 341 341 340 340 340 340 340 339 339 339 339 338 338 338 337 337 337 336 335 334 333 333 333 333 332 332 332 332 332 332 332 332 332 332 332 332 332 332 332 332 332 331 331 331 331 331 332 333 333 334 334 334 333 333 333 333 334 332 329 327
313 313 314 314 313 314 314 316 315 312 315 315 316 317 314 322 336 339 339 343 346 346 346 346 344 343 343 343 342 342 341 341 342 341 341 341 341 341 340 339 339 340 339 338 338 338 338 338 338 338 338 337 337 336 335 334 333 333 333 332 332 332 333 332 332 333 333 333 333 334 334 333 334 333 333 334 333 333 333 333 332 332 332 332 332 332 332 332 333 333 332 332 333 333 333 333 332
313 315 318 317 313 313 314 317 316 313 315 315 316 316 314 324 336 338 340 343 345 345 345 345 343 343 342 341 340 341 341 340 341 341 341 340 340 340 339 339 339 339 338 337 338 338 338 337 337 338 337 337 336 335 334 333 333 332 332 332 333 334 334 334 334 334 335 335 335 335 335 334 334 334 334 334 333 333 333 332 332 332 332 332 332 332 331 331 332 333 332 332 332 332 332 332 332
312 313 315 314 313 313 314 316 316 314 315 315 317 318 317 325 335 338 340 340 342 344 344 343 343 342 341 340 340 340 340 340 340 341 340 339 339 339 339 339 339 339 338 338 338 337 337 337 336 337 336 335 335 334 334 333 333 332 332 333 334 335 335 335 335 335 335 335 335 335 334 334 333 333 333 333 333 332 332 332 331 331 331 331 331 332 331 331 331 332 332 332 331 332 331 331 332
311 311 312 312 311 313 313 315 315 313 315 316 315 317 316 322 333 338 339 338 340 344 344 343 342 341 340 339 339 339 339 339 340 340 340 339 339 339 339 339 338 339 338 338 337 337 337 336 336 336 335 335 335 334 334 333 334 333 334 335 335 336 336 336 335 335 335 334 334 334 333 333 333 334 334 333 333 332 331 330 329 329 329 330 331 331 332 331 331 331 332 331 331 331 331 331 332
311 311 311 312 312 312 313 315 314 312 315 316 315 319 322 325 334 339 339 339 340 341 340 342 342 340 338 338 338 338 338 339 340 340 340 340 339 338 339 339 338 339 338 338 337 337 336 336 336 336 335 335 335 335 335 335 335 335 335 335 336 336 336 336 335 334 334 334 334 334 334 334 334 334 334 333 333 332 332 331 330 329 329 329 331 332 332 332 331 331 331 331 331 330 330 330 331
312 311 311 312 313 312 313 317 316 312 315 319 322 331 334 334 338 339 335 334 337 335 332 335 339 339 338 338 339 339 339 340 340 340 340 338 338 338 338 338 338 338 338 338 338 337 337 337 337 336 336 336 336 336 336 337 337 337 336 335 335 336 335 334 334 334 334 334 334 334 334 334 334 334 334 333 333 332 332 332 331 330 330 329 330 331 331 332 331 331 331 331 331 330 330 330 331
311 311 311 311 312 312 314 316 316 315 316 320 328 334 335 336 339 339 333 330 332 332 330 330 333 336 338 338 339 339 340 340 340 340 338 337 338 338 338 338 338 338 338 338 338 338 338 337 337 337 337 337 337 337 337 336 336 336 335 334 334 335 335 334 333 334 334 334 334 334 335 334 334 334 333 333 333 333 332 331 331 330 330 330 330 331 331 332 332 331 331 331 331 331 330 331 331
311 311 311 312 312 312 314 315 315 316 314 318 323 326 331 336 338 337 332 331 331 329 330 331 331 334 337 338 339 339 340 340 339 338 337 337 338 339 339 338 338 338 338 338 338 338 338 337 337 337 337 337 336 336 336 336 335 334 334 334 335 335 335 334 334 334 334 334 334 334 334 334 334 334 333 333 332 332 332 331 331 330 330 330 330 331 331 332 332 332 332 331 331 331 331 331 331
310 311 311 312 312 312 314 313 314 315 315 318 316 318 331 338 338 337 333 334 332 328 331 333 332 335 337 338 339 339 340 339 339 338 337 338 338 339 338 338 338 338 338 338 338 337 337 336 336 336 336 336 336 336 335 335 335 334 333 333 334 334 334 334 333 333 333 333 333 333 334 334 334 334 333 333 332 332 332 332 331 330 329 328 329 329 330 331 331 331 332 332 332 331 331 331 331
310 312 312 312 312 312 314 312 314 317 317 320 320 323 338 341 337 337 335 335 334 331 333 334 333 335 337 338 339 339 339 338 338 338 338 338 338 338 337 337 337 337 336 336 336 336 336 336 335 335 335 335 335 335 335 334 334 333 333 333 333 333 333 333 333 333 333 333 333 333 334 334 333 333 333 332 331 331 331 331 331 330 328 327 326 327 328 330 331 331 331 331 331 331 331 331 331
312 314 313 312 311 312 314 312 314 316 315 319 324 327 336 339 336 337 337 336 336 334 335 335 333 334 336 337 338 338 338 338 338 337 337 337 337 336 336 335 336 336 335 335 335 335 335 334 334 334 334 334 333 334 333 333 333 332 332 333 333 333 333 333 332 332 332 332 332 332 333 333 333 333 332 331 331 330 330 330 330 330 329 328 327 326 327 328 330 330 330 330 331 331 330 330 330
312 313 314 312 311 312 313 313 314 315 314 317 323 325 329 336 339 339 339 339 337 335 335 334 334 335 336 337 337 337 336 336 337 336 336 336 335 335 334 333 333 333 333 333 333 334 334 334 333 332 333 333 332 332 332 332 332 332 331 332 332 332 332 333 332 332 331 331 330 330 332 333 331 331 330 330 329 329 329 329 329 330 330 329 328 327 327 327 329 329 330 330 330 331 331 330 329
311 312 313 312 313 315 314 316 316 315 316 315 319 326 327 332 339 339 338 339 337 336 336 335 335 335 335 335 335 335 335 335 335 334 335 334 333 333 332 331 332 333 332 332 332 333 333 333 332 332 333 333 333 332 331 331 331 331 331 331 331 331 331 332 331 330 330 330 329 330 331 331 327 326 327 327 327 328 328 328 328 328 329 330 329 328 327 327 327 328 329 329 329 329 330 330 329
312 312 313 312 315 315 313 316 317 315 318 316 317 325 324 327 337 337 335 337 336 335 335 335 335 333 333 333 333 333 333 334 334 333 333 333 332 332 331 331 332 332 332 331 332 331 331 331 331 331 332 332 332 332 331 330 330 330 331 331 331 330 330 329 329 329 329 328 328 328 328 327 324 323 325 326 327 327 327 327 328 328 329 329 329 329 328 328 327 327 327 327 327 328 328 329 329
312 313 313 313 314 313 313 316 316 316 320 318 317 323 325 326 333 334 333 336 336 334 334 333 333 331 331 331 330 330 331 333 333 331 331 331 332 332 331 331 331 331 330 330 329 329 329 329 330 330 330 330 329 329 329 329 329 329 329 329 329 329 328 327 328 327 326 325 325 325 324 323 323 324 325 326 327 327 326 327 327 327 328 329 329 329 328 328 327 327 326 326 327 327 327 328 329
311 311 312 313 313 313 314 314 316 318 320 321 319 322 327 331 334 334 334 335 334 331 330 332 332 330 330 329 329 329 328 330 332 331 330 331 331 331 330 329 329 329 328 328 328 328 328 329 329 329 328 327 326 326 326 326 326 327 328 328 328 328 327 327 326 325 325 324 323 323 323 322 323 325 326 326 326 326 326 326 326 326 327 328 329 329 328 328 327 327 327 327 327 327 328 328 328
311 311 313 315 315 315 314 315 317 316 318 323 324 324 330 336 337 334 334 334 332 330 329 330 330 329 329 327 327 328 326 328 330 329 329 330 330 330 329 328 328 327 327 326 327 326 327 327 326 325 324 323 322 321 322 322 323 324 325 325 326 326 326 326 325 324 324 323 323 322 321 321 323 324 325 326 326 326 326 325 325 325 325 326 327 327 327 327 327 327 327 327 328 328 328 328 328
311 311 313 313 315 318 318 320 322 322 324 328 330 330 330 333 333 332 333 332 330 330 329 329 328 327 327 326 326 326 325 326 327 327 327 327 327 327 327 326 326 326 326 325 324 323 323 323 322 321 320 319 319 319 319 320 320 320 321 322 322 323 323 323 323 323 323 322 322 321 321 321 322 322 323 324 325 326 325 324 324 324 325 325 326 326 326 326 326 326 326 327 328 327 328 328 328
313 311 312 312 314 318 319 319 319 323 326 326 328 332 331 332 332 332 332 332 330 329 328 328 327 326 326 326 325 325 325 325 325 325 325 324 325 325 325 324 325 325 324 322 322 321 321 320 319 319 318 318 318 318 318 318 318 319 319 320 320 320 320 321 321 322 322 322 321 322 322 322 321 322 322 322 323 325 325 324 324 324 324 325 325 325 324 325 325 326 326 327 327 327 328 328 327
313 311 311 312 314 316 321 324 320 320 325 325 326 333 334 335 335 332 330 330 329 328 327 327 326 326 325 325 324 324 324 324 323 323 323 323 323 323 322 322 322 323 322 321 320 320 320 319 319 318 317 317 317 317 317 317 317 318 318 318 319 319 320 320 320 320 320 320 320 320 320 321 321 321 321 321 322 323 323 323 324 324 324 324 324 324 324 324 324 325 326 326 327 327 327 327 327
312 311 311 315 316 313 318 324 320 321 327 327 328 332 334 335 334 332 329 328 328 327 327 326 325 325 325 324 323 323 323 322 322 322 322 321 321 321 321 320 320 321 320 320 320 319 319 319 319 317 316 316 317 316 317 317 317 317 317 318 318 318 317 317 317 318 317 317 318 318 318 319 319 319 320 320 320 320 321 322 322 323 322 321 321 322 323 323 323 324 324 325 325 325 325 327 327
311 311 311 316 318 314 314 318 322 328 330 328 331 333 334 333 331 330 329 327 328 328 327 326 325 324 323 322 322 322 322 321 321 321 321 321 320 320 320 320 320 320 319 319 319 319 319 319 318 317 316 316 316 316 316 316 316 316 316 316 316 315 315 315 315 315 315 315 316 316 316 317 317 317 317 318 318 318 319 320 320 320 320 320 320 320 321 322 323 323 324 324 325 324 324 325 326
310 312 312 314 314 314 315 317 324 333 333 330 332 334 334 333 329 328 328 327 327 327 326 325 324 323 322 321 321 321 321 321 320 320 320 320 320 319 319 319 319 319 318 318 318 319 320 319 318 317 316 316 316 316 316 316 316 315 314 314 314 314 314 314 314 314 315 315 315 316 316 316 316 316 316 317 317 317 318 318 318 317 318 319 319 319 319 320 321 321 322 323 324 324 324 324 324
310 312 313 312 313 315 316 314 319 329 334 332 332 334 335 333 330 328 328 327 326 325 325 324 322 322 321 320 320 320 320 320 319 319 320 320 319 319 319 319 318 318 318 318 318 319 319 318 317 317 316 316 316 316 315 315 315 314 313 313 314 314 314 314 314 314 315 315 315 315 315 315 316 316 316 317 317 317 317 317 316 316 316 317 317 318 318 319 319 320 321 322 323 323 323 323 324
Wind_Speed
7 6 5 5 3 2 1 1 0 2 2 1 2 1 3 5 3 3 6 5 4 4 1 2 5 11 8 8 8 7 8 3 4 4 4 12 25 27 23 24 24 25 26 27 27 25 23 21 20 19 18 17 16 14 13 13 13 13 13 12 13 13 13 14 15 16 17 17 16 16 16 16 17 17 17 18 18 18 17 15 14 13 12 11 11 11 10 10 10 11 12 11 11 10 10 11 12
8 7 5 5 2 2 1 2 1 2 2 2 3 3 4 3 2 6 7 5 4 4 13 16 17 15 11 10 7 6 10 8 4 10 14 23 31 27 22 22 24 25 26 26 27 26 24 21 20 19 18 17 16 15 13 13 12 12 13 12 13 13 13 14 15 16 16 16 16 16 16 16 17 17 17 17 16 16 16 15 13 12 11 10 10 9 9 9 9 10 10 9 8 8 10 12 12
8 7 6 6 3 1 1 2 1 1 2 4 4 4 4 2 6 7 3 3 8 18 22 19 15 10 7 5 5 5 5 6 10 21 23 27 30 28 25 22 24 26 25 26 26 26 24 22 21 19 18 17 16 15 13 12 11 11 12 12 12 13 13 13 15 15 15 15 16 16 16 16 17 17 16 15 15 14 14 13 12 11 10 9 8 8 7 7 7 8 9 7 7 9 13 14 13
8 7 6 6 3 0 2 2 2 4 3 4 2 5 4 4 9 4 3 2 14 18 11 9 8 7 8 6 5 6 3 4 14 25 27 27 27 26 26 24 26 27 25 26 26 26 25 23 21 19 18 17 17 15 13 12 11 11 11 12 12 13 13 13 14 15 15 15 15 15 16 16 16 16 15 14 14 13 12 11 10 10 9 9 8 7 7 6 7 8 8 8 7 12 16 15 12
8 6 6 4 2 1 2 1 2 4 5 4 2 5 4 6 7 2 4 5 13 6 1 5 7 7 12 8 3 3 6 10 15 23 29 27 25 24 25 25 27 27 26 26 26 26 25 23 21 20 19 18 17 15 14 12 11 11 11 12 12 12 12 13 13 14 14 14 14 15 15 15 16 15 15 13 12 11 10 9 8 9 9 9 9 9 9 8 8 8 8 8 9 15 18 15 12
6 4 4 3 2 1 2 1 2 3 5 4 3 5 5 6 4 2 7 4 14 9 3 5 11 11 10 9 7 8 8 10 16 22 27 27 25 23 23 26 27 26 26 26 26 25 25 24 22 21 20 18 17 16 14 13 12 11 11 12 12 12 12 12 13 14 14 14 14 14 14 15 15 15 14 12 11 10 9 8 8 9 10 11 12 11 11 9 8 8 9 10 13 17 17 14 11
5 4 3 2 0 1 2 3 4 4 4 5 4 6 6 6 3 3 7 2 7 6 2 11 21 18 6 4 9 7 3 8 19 22 24 25 24 23 23 25 26 25 25 26 25 25 24 23 22 21 20 19 18 16 15 13 12 11 12 12 12 12 12 12 13 13 14 13 13 14 14 14 14 14 13 12 10 9 8 8 8 10 11 12 13 12 11 10 9 9 10 13 16 18 16 13 10
5 3 2 3 0 1 2 2 4 4 4 5 4 9 10 11 9 5 2 1 3 3 8 15 19 13 2 3 6 5 6 12 19 22 25 25 23 23 22 23 23 24 25 26 25 24 24 23 22 21 20 19 18 16 15 14 12 11 11 12 12 12 12 12 13 13 14 14 13 13 14 14 13 13 12 11 9 9 9 9 10 10 11 12 12 12 11 11 10 10 12 16 18 17 15 12 9
5 4 2 2 1 1 1 2 4 4 5 5 6 13 17 19 15 8 4 2 3 3 8 10 7 7 6 8 9 7 11 16 20 23 24 22 21 20 19 20 20 23 26 25 25 24 23 22 21 20 20 19 17 16 15 13 12 11 11 12 13 12 12 12 12 12 13 14 14 13 13 13 12 12 11 10 9 9 9 10 10 11 11 12 12 12 12 11 11 12 15 18 18 17 15 11 8
5 3 2 1 2 1 3 3 3 3 5 5 8 17 20 21 16 11 6 4 8 7 6 7 5 12 14 10 9 9 16 20 23 24 22 19 17 16 16 18 18 22 26 25 24 23 22 21 20 19 18 18 17 16 14 13 12 11 11 13 13 13 12 12 12 12 12 13 14 13 12 13 12 11 10 9 9 9 10 10 11 11 11 12 12 12 12 12 12 14 17 18 18 17 14 10 8
3 2 2 2 2 2 4 3 4 4 6 4 10 20 24 23 16 11 6 6 10 12 10 9 10 19 17 8 9 14 22 23 22 22 21 18 15 14 15 18 19 22 24 23 23 22 21 20 18 17 17 17 16 15 14 13 12 12 12 13 14 13 12 12 11 11 12 12 12 12 13 12 11 11 10 9 9 9 10 11 11 11 11 12 11 12 12 12 13 16 19 19 18 16 13 10 8
2 0 3 3 2 4 4 3 4 5 7 5 8 18 21 19 13 8 7 8 11 13 14 14 16 21 13 5 13 20 25 23 21 21 19 17 16 17 18 20 22 22 22 22 22 21 20 19 18 17 16 16 15 15 14 14 14 13 13 13 14 14 13 12 12 11 11 11 10 11 12 12 12 11 10 9 9 9 10 10 11 11 11 11 11 12 12 12 14 17 19 18 17 15 13 11 9
4 1 5 2 3 3 3 3 4 5 5 5 7 13 17 13 12 13 10 12 15 13 10 16 25 21 9 8 18 23 25 24 21 20 19 18 19 21 21 21 21 20 21 22 21 20 19 19 18 17 16 16 16 15 15 15 15 14 14 14 14 14 13 12 12 11 11 11 10 10 11 11 11 10 9 9 9 9 10 10 11 11 11 12 11 11 11 12 15 17 18 18 17 15 13 11 8
5 3 5 1 1 2 2 3 4 2 4 7 6 12 17 12 14 14 12 13 12 14 11 21 30 17 11 13 16 24 25 24 22 21 19 18 20 22 21 20 18 17 20 21 20 19 19 18 18 17 17 17 17 17 17 16 15 15 14 14 14 13 13 13 12 11 11 10 10 10 11 10 10 9 9 9 8 8 9 10 10 10 11 12 11 11 11 12 15 17 17 18 17 15 13 11 8
7 3 4 1 1 1 2 3 3 3 5 6 4 14 14 9 10 11 20 16 7 15 17 24 25 10 15 15 14 28 27 25 24 22 21 19 19 19 19 18 16 15 18 21 19 18 18 17 17 17 17 17 17 17 17 16 16 15 14 13 13 13 13 13 12 11 11 10 10 10 10 10 9 9 9 8 7 7 8 9 9 10 10 11 11 11 11 11 14 16 17 18 17 15 13 10 8
7 2 3 1 2 2 3 4 3 4 5 5 8 18 14 6 2 9 20 21 16 18 16 19 14 3 19 19 20 34 28 26 26 24 23 20 20 19 19 17 15 15 18 21 18 17 17 16 16 16 16 16 16 16 16 16 16 15 13 12 12 13 13 13 12 11 11 10 9 9 9 9 8 8 8 8 7 7 8 9 9 9 10 10 11 11 11 11 13 15 17 17 17 16 13 10 8
5 1 2 1 3 3 3 4 4 4 6 5 14 19 10 7 6 13 15 24 24 17 9 10 8 7 23 19 26 36 28 29 28 26 25 22 23 21 20 17 16 16 18 20 17 16 15 14 15 15 15 15 15 15 14 15 15 15 13 13 13 14 14 13 12 12 11 10 9 8 8 8 8 8 8 8 8 8 8 8 9 9 9 10 11 11 11 11 12 14 16 17 17 16 13 11 9
5 2 2 4 4 4 4 6 5 3 5 7 15 19 8 4 4 17 17 18 22 16 11 11 7 14 24 20 31 35 29 31 28 27 26 24 25 22 21 18 16 17 20 21 17 15 14 13 14 14 14 14 14 13 13 14 14 15 14 14 13 13 13 12 12 12 10 9 8 8 9 9 9 9 9 9 8 9 9 8 8 8 9 9 10 11 11 11 11 13 15 17 18 16 15 12 9
7 2 2 5 4 5 5 5 5 4 7 9 15 21 11 3 6 15 12 10 17 16 13 17 21 22 23 26 34 32 30 32 28 28 26 26 26 23 21 18 17 18 21 21 17 15 12 12 13 12 13 12 12 12 13 13 13 14 13 13 12 12 12 11 12 11 10 9 9 9 9 9 8 9 10 10 10 10 10 9 8 9 9 9 10 10 11 12 12 13 14 16 18 17 16 14 11
10 6 3 6 5 5 10 11 13 14 12 9 12 20 15 4 8 10 10 8 9 11 15 19 26 30 31 33 34 31 32 31 29 27 24 26 24 22 21 17 17 19 22 19 17 15 12 12 12 12 12 11 12 12 13 12 13 12 12 12 10 11 10 10 11 10 10 10 9 9 9 8 8 8 8 9 9 10 10 10 9 9 9 9 10 10 10 12 12 13 14 15 17 17 18 16 13
7 8 4 4 5 5 12 15 17 18 12 8 12 14 13 8 10 15 17 11 1 9 23 28 33 38 39 37 34 33 32 30 30 26 24 25 23 21 19 16 17 19 21 18 16 15 13 14 13 13 12 11 12 11 11 11 11 11 10 11 10 10 9 9 9 9 9 9 9 8 8 8 8 6 5 6 7 9 9 9 10 9 9 9 10 10 10 11 12 13 13 14 16 17 19 17 14
3 6 6 5 5 4 12 15 16 16 10 10 11 10 10 6 9 21 20 10 7 15 22 33 41 42 42 41 36 33 31 30 29 26 25 24 22 21 18 17 18 20 20 17 16 15 15 15 13 12 12 11 11 10 11 10 10 9 9 9 9 9 8 8 7 7 7 7 7 7 8 8 7 6 4 4 4 6 7 8 9 9 10 10 10 10 10 11 12 13 14 14 15 17 18 16 13
4 6 5 7 10 8 13 18 19 16 10 11 9 10 9 0 8 13 7 2 10 18 19 29 39 41 43 42 38 35 32 30 27 25 24 23 22 21 19 19 19 19 19 16 16 16 16 15 13 12 12 12 11 11 11 10 9 8 8 8 7 7 7 7 6 6 6 6 6 6 7 8 7 7 6 5 4 4 5 6 8 9 10 10 11 11 11 12 12 13 14 14 15 18 18 15 12
8 5 2 9 13 11 17 21 24 22 17 17 14 11 7 3 7 3 4 7 13 19 22 29 34 38 41 40 37 35 31 28 26 24 23 22 21 19 18 17 17 18 17 16 17 16 16 15 14 13 12 12 11 11 10 9 8 7 7 6 6 6 5 5 5 5 5 5 6 7 8 8 8 8 9 8 7 6 6 7 7 8 9 10 12 13 13 13 13 14 14 15 16 18 18 15 11
8 5 4 8 12 16 21 24 25 25 22 19 12 4 1 4 6 6 7 13 19 24 29 31 33 35 36 35 34 32 29 27 25 24 23 21 18 16 15 14 15 16 15 16 18 17 16 15 14 12 12 11 10 10 10 9 7 6 5 4 4 4 3 3 4 4 5 5 7 7 7 8 8 9 10 11 10 9 9 9 9 9 9 10 12 14 14 15 15 15 15 15 16 18 18 15 13
6 7 8 9 13 19 20 20 22 22 20 13 3 4 9 13 10 7 7 18 24 27 31 31 33 34 32 30 30 29 27 26 24 23 22 19 16 13 13 13 14 15 13 14 17 17 16 16 14 12 12 11 10 9 9 8 7 6 5 4 4 3 3 3 4 5 6 7 8 9 9 9 9 10 11 11 12 11 11 11 11 10 10 10 11 14 16 16 17 17 16 16 16 18 18 16 15
7 8 11 13 16 19 15 14 20 18 17 12 2 6 10 12 6 3 8 21 27 29 30 29 31 30 29 29 27 26 24 24 24 22 21 18 16 15 16 15 14 13 12 12 15 15 15 15 13 11 12 10 9 9 8 8 7 6 5 4 4 4 5 5 5 6 8 8 9 10 11 10 10 11 11 12 12 12 13 13 13 12 12 11 11 12 16 18 18 18 18 18 18 19 18 17 17
10 8 7 11 13 14 12 11 16 11 10 11 6 7 5 4 3 8 16 23 29 31 29 27 27 27 28 28 25 25 25 25 23 21 20 18 17 18 18 16 13 12 11 10 12 13 13 14 12 11 11 10 9 9 8 7 6 6 5 5 5 5 6 6 6 7 8 9 10 11 11 11 11 11 12 12 12 13 13 13 13 13 12 12 12 12 14 18 19 19 20 20 21 21 20 20 19
10 7 4 8 7 7 9 9 13 8 8 11 7 6 3 2 4 17 24 25 28 30 29 26 26 27 27 28 27 27 26 24 22 20 17 15 15 16 16 15 13 13 11 10 11 12 12 12 11 11 11 11 9 8 9 7 6 6 5 5 6 6 7 7 7 8 9 10 11 10 10 10 10 11 12 12 13 13 13 14 14 14 13 13 14 14 14 16 19 20 21 21 22 22 22 22 21
7 2 3 4 5 5 7 7 8 7 11 13 7 4 6 3 7 22 28 28 28 26 27 26 24 26 27 29 29 26 25 23 22 20 17 15 14 14 15 14 13 13 12 12 12 12 13 13 12 11 11 11 9 9 9 8 7 6 5 6 7 7 7 8 8 8 9 10 10 9 9 9 9 10 10 10 11 12 13 13 14 14 15 15 16 17 17 16 18 20 21 22 22 23 23 24 24
3 1 1 1 1 5 7 4 7 6 11 12 6 3 6 2 9 23 27 31 32 24 23 23 23 26 26 29 29 26 25 22 21 20 18 17 15 15 14 14 14 12 12 12 12 12 13 13 12 12 12 11 10 9 8 8 7 7 6 6 7 7 7 7 8 8 8 8 9 8 8 8 9 9 9 9 10 11 12 13 13 14 15 16 16 18 18 17 18 20 21 22 22 23 24 25 25
1 2 3 2 3 5 8 2 9 8 7 6 6 3 3 3 11 23 25 27 30 25 21 21 23 26 27 29 30 28 26 24 21 19 18 16 16 16 14 14 13 12 11 12 11 11 12 12 12 12 12 11 11 10 8 8 7 7 6 6 6 6 6 7 7 7 7 7 8 8 9 10 10 10 10 11 11 12 12 12 13 13 15 16 17 18 19 19 19 20 21 22 22 22 24 25 25
2 2 3 1 3 3 5 3 8 10 4 1 2 4 3 3 11 21 24 24 26 23 20 21 23 24 27 30 30 28 26 25 21 19 19 18 17 16 14 13 13 11 11 11 11 11 11 12 12 12 12 11 11 10 9 8 7 7 7 7 7 7 6 7 7 7 7 7 8 9 10 11 11 12 13 13 14 14 14 14 13 14 15 16 17 19 19 20 20 21 23 23 22 23 24 24 24
2 0 3 2 3 3 2 3 6 6 5 2 1 3 2 5 12 19 21 23 24 21 20 22 22 22 28 31 29 28 27 25 23 21 20 19 18 16 14 13 13 12 11 11 10 11 12 12 13 13 12 12 11 10 10 9 8 8 8 7 6 6 5 6 7 7 7 7 8 9 11 11 12 13 13 14 15 15 15 15 15 15 16 17 19 20 21 21 22 23 24 23 23 25 26 25 25
3 3 3 2 3 3 4 4 4 5 3 4 4 1 1 6 13 18 22 25 25 23 22 23 22 26 30 30 28 28 26 25 24 23 20 19 18 16 15 14 13 13 12 12 12 12 12 12 13 14 13 12 11 11 10 9 8 8 7 6 5 4 5 6 6 6 7 8 8 9 10 11 11 12 13 14 15 15 16 16 16 16 17 19 20 20 21 21 22 23 24 23 23 24 26 25 25
7 6 4 4 4 4 4 5 5 5 5 4 6 4 3 8 12 14 23 27 25 24 23 23 25 28 29 28 29 28 26 26 25 23 21 20 19 18 16 15 14 13 12 13 13 12 12 12 14 14 12 12 11 10 10 9 8 7 6 5 4 5 5 6 6 7 7 8 8 8 9 10 11 11 12 13 14 15 16 16 17 17 18 20 21 21 20 21 22 24 24 24 24 23 24 24 24
6 5 4 5 4 4 4 5 5 4 6 4 6 6 5 11 12 11 20 21 17 20 22 23 26 28 29 28 29 28 27 27 26 23 21 20 19 18 17 16 14 13 12 11 12 12 12 12 12 11 11 10 10 9 9 8 7 7 7 6 5 5 5 6 7 7 7 8 8 9 9 9 9 9 10 12 13 14 15 16 17 18 19 20 22 22 21 21 22 23 25 25 25 25 24 23 23
3 3 4 3 4 4 6 5 4 3 4 2 5 8 4 9 10 12 20 17 15 19 20 24 27 25 27 29 29 29 28 26 25 24 21 19 19 19 18 17 15 14 12 11 10 10 10 10 10 9 8 8 8 8 8 7 7 7 7 6 5 5 6 7 8 8 8 8 8 8 8 7 8 8 10 11 12 14 15 16 17 18 18 20 22 22 22 22 22 23 24 25 25 25 25 25 23
5 4 4 3 4 3 6 6 3 2 3 1 5 7 1 2 6 9 14 16 17 18 16 20 28 27 25 27 29 29 28 26 25 24 21 19 19 19 19 17 15 14 13 11 10 9 9 9 8 7 7 7 7 7 7 6 6 5 6 6 6 7 7 8 8 7 7 6 7 7 7 8 8 9 10 11 12 14 15 16 17 18 17 18 20 21 21 23 23 23 24 24 25 25 26 26 25
5 5 4 3 4 2 3 5 4 2 3 3 7 6 3 2 4 3 3 6 7 11 13 10 17 28 29 27 29 28 29 29 26 24 23 21 20 19 18 17 15 14 13 12 11 10 9 8 7 7 7 7 7 7 6 6 6 5 6 7 7 7 7 7 6 5 7 8 8 9 9 9 10 11 11 12 13 14 15 16 17 18 18 17 19 20 21 21 22 23 24 25 26 26 26 26 25
5 5 5 3 3 4 3 3 3 3 4 5 8 6 4 2 2 1 5 7 8 7 13 6 2 16 27 28 28 28 29 30 28 27 25 22 21 19 18 17 16 15 13 12 12 11 10 9 8 8 8 7 7 7 7 7 7 7 7 8 7 7 7 8 7 7 9 10 10 10 11 11 12 12 13 13 14 14 16 16 17 18 18 17 18 19 20 20 21 22 24 25 26 27 27 27 26
5 5 7 6 5 5 3 3 4 5 4 1 5 4 3 3 1 3 4 6 6 7 10 11 2 7 21 28 27 27 27 29 29 28 27 24 23 22 20 19 17 16 15 13 12 11 10 10 9 8 7 7 7 7 7 8 7 7 8 8 8 8 9 9 9 9 10 10 11 11 12 12 13 13 14 14 15 16 17 17 17 18 18 18 18 19 19 20 22 23 25 26 27 27 27 28 27
4 5 9 8 6 5 2 2 3 3 2 4 2 5 3 3 3 4 6 7 10 7 7 15 14 11 19 25 25 27 28 29 30 27 27 26 25 24 22 19 18 16 15 13 12 10 10 9 8 7 7 7 7 7 7 8 8 8 8 8 9 9 9 9 9 9 10 11 12 13 13 13 14 15 15 16 16 16 16 16 17 17 17 17 18 19 20 21 22 22 23 25 26 26 27 28 28
3 5 10 9 6 6 4 1 0 2 3 5 2 4 3 2 5 6 9 10 10 11 10 14 17 17 19 19 20 27 29 31 33 30 28 27 25 24 21 18 16 14 12 11 10 9 9 9 9 9 9 9 9 9 9 9 9 9 8 9 9 9 9 9 10 10 11 12 13 14 15 15 16 17 17 17 17 17 16 16 17 17 17 17 18 19 19 20 20 21 21 22 23 24 24 27 28
4 6 10 8 8 7 5 4 3 1 0 5 4 3 3 3 5 6 9 11 10 12 12 11 18 24 23 21 22 27 29 33 35 33 31 28 24 22 19 17 15 13 12 11 10 10 9 9 10 9 9 9 9 10 10 9 9 10 10 10 9 10 10 10 11 11 12 13 14 15 17 18 19 19 19 19 18 18 18 18 18 17 17 17 17 18 18 17 18 18 19 19 20 21 23 25 26
4 7 8 5 6 6 6 5 3 2 1 6 8 6 4 3 4 8 9 9 11 12 9 9 21 28 25 25 27 27 30 33 33 32 31 28 24 21 18 15 14 13 12 11 10 9 9 9 9 8 7 8 9 10 10 9 10 10 11 12 12 12 13 13 14 15 17 17 17 17 17 19 20 21 20 19 19 19 18 17 17 17 17 17 17 17 17 16 15 16 16 16 18 20 23 23 21
5 7 6 4 3 3 3 2 3 3 3 8 10 9 6 3 4 7 6 6 12 13 8 8 18 24 23 26 28 27 30 32 30 30 29 28 26 22 18 14 14 14 12 10 10 9 7 6 6 7 7 8 8 10 11 11 11 12 13 13 14 14 15 17 19 19 19 19 19 19 18 18 19 20 19 18 19 19 18 17 16 16 16 16 16 16 16 15 14 14 15 15 16 18 19 19 17
5 6 4 3 0 1 3 2 2 4 7 8 9 9 5 4 5 6 4 5 12 13 11 11 14 19 23 25 26 27 29 31 30 29 29 28 26 23 18 14 14 13 10 8 8 7 6 6 6 8 9 10 10 12 13 14 14 14 14 15 16 17 18 20 20 20 20 19 19 19 19 18 18 16 16 16 16 17 16 15 14 14 15 15 16 16 16 15 15 15 15 15 16 16 16 17 18
6 5 6 5 2 1 2 2 1 5 6 5 7 9 4 4 4 7 9 10 13 13 12 16 19 22 25 25 26 28 29 31 30 27 27 27 25 23 19 16 14 11 9 8 6 6 8 8 10 11 12 12 14 15 17 18 18 17 17 18 19 20 20 20 20 20 19 18 18 18 18 17 15 14 14 14 14 14 14 14 13 13 13 14 16 17 17 16 16 17 17 17 17 16 16 18 19
9 6 7 6 5 5 6 5 2 4 5 4 3 8 4 3 3 5 11 11 14 15 13 17 22 24 26 26 27 28 27 30 31 27 26 25 24 23 21 17 14 11 9 9 10 10 10 11 12 13 13 14 13 13 14 15 16 17 18 20 21 21 21 21 21 20 18 16 16 16 17 16 14 14 14 13 13 14 14 14 14 13 13 14 15 16 17 17 17 18 19 19 19 18 18 19 20
7 4 6 5 4 6 6 5 2 3 3 4 1 5 4 2 2 3 8 12 16 20 18 18 20 22 26 26 26 27 26 28 29 27 25 24 23 23 19 16 13 10 7 8 9 8 9 9 9 9 8 7 5 5 6 7 9 12 14 16 17 18 19 19 19 18 16 15 14 15 15 14 14 14 13 13 14 14 15 15 15 14 14 14 15 16 17 17 17 18 19 21 21 20 20 21 22
5 4 5 5 5 5 3 4 4 4 3 2 1 1 1 2 1 2 10 15 17 21 22 21 20 21 25 25 24 27 26 26 28 26 25 23 21 19 16 14 11 7 7 7 5 4 3 3 4 4 4 4 3 3 2 2 3 5 7 9 10 12 13 14 14 14 13 13 13 14 14 14 14 14 13 14 14 14 16 16 16 16 15 15 16 17 18 18 18 18 19 20 21 21 21 22 23
3 5 6 5 4 6 2 2 2 4 4 1 1 1 0 1 1 3 11 13 13 15 18 21 21 22 24 22 23 25 26 26 26 24 22 20 18 16 14 13 10 8 9 8 6 5 4 5 7 7 7 6 5 4 3 2 0 2 3 4 5 6 8 9 10 10 11 12 13 14 15 16 17 16 15 15 14 15 15 16 17 17 17 16 17 18 19 19 19 19 19 20 20 21 22 23 24
5 6 7 3 4 3 1 2 1 3 4 2 2 3 4 3 2 3 8 10 7 8 12 18 20 21 21 20 22 24 25 26 24 22 21 18 17 17 15 13 11 9 9 9 8 8 8 8 9 9 8 6 5 4 4 2 2 2 2 2 3 4 5 7 8 9 10 11 13 14 15 16 17 17 17 17 17 17 17 18 19 19 19 18 18 19 20 20 20 21 21 21 21 21 22 23 24
7 6 6 7 4 5 3 3 2 2 3 1 2 4 5 3 3 7 10 9 7 9 12 14 16 18 19 20 22 24 25 25 24 24 22 20 19 18 16 14 12 12 12 11 10 9 8 9 10 10 8 6 5 5 4 3 4 4 4 3 3 4 5 6 7 8 9 9 10 12 13 14 15 16 17 18 19 19 19 20 21 21 21 20 20 20 21 21 22 22 23 23 23 22 22 23 22
7 5 6 6 5 6 5 3 3 4 4 1 2 4 4 3 4 10 15 15 14 14 14 12 14 18 21 22 24 25 26 26 27 26 23 22 20 18 17 15 15 15 14 11 10 9 10 12 12 10 7 5 4 3 3 4 4 5 5 4 3 3 2 3 4 5 6 6 7 9 10 11 13 14 16 17 19 19 19 20 21 21 21 20 20 20 21 21 22 23 23 23 24 23 23 23 22
6 5 6 6 4 3 4 2 2 4 4 3 3 4 4 2 4 10 15 17 16 16 15 12 15 21 23 25 26 27 27 27 26 25 24 23 20 18 18 17 16 17 14 12 11 12 14 15 13 9 6 3 1 1 3 4 5 6 5 3 2 1 2 3 3 4 4 5 5 6 8 9 11 12 14 15 17 18 19 19 20 19 19 19 20 21 21 22 22 23 22 22 22 22 23 24 24
7 5 5 7 6 5 4 4 1 3 4 4 5 4 4 3 3 8 11 12 13 16 16 14 17 23 25 27 29 29 29 28 26 25 25 23 21 20 19 18 18 18 16 15 13 15 17 16 13 10 7 4 2 1 3 5 7 6 4 1 1 3 4 5 5 5 5 5 6 7 8 9 10 10 11 12 14 16 17 19 19 19 18 19 21 22 22 22 23 23 22 22 22 22 23 25 25
Wind_Direction
243 239 245 255 299 325 307 55 5 334 79 169 241 246 254 230 266 284 279 303 314 294 145 94 130 136 126 120 128 99 47 62 158 126 157 147 148 156 154 162 169 173 173 167 167 163 163 166 164 161 152 143 137 134 132 130 129 128 125 122 119 118 121 125 127 129 133 134 133 131 128 127 124 123 121 119 117 115 114 111 110 111 111 111 109 110 109 109 109 108 112 119 122 119 112 114 115
236 234 241 239 278 349 248 90 110 310 74 241 258 196 259 279 288 261 274 291 241 115 104 102 97 96 91 101 93 50 33 29 115 114 123 143 152 159 156 165 172 175 176 171 169 164 163 166 166 162 153 146 142 140 136 133 131 130 128 125 124 122 124 128 130 131 135 137 136 134 132 130 128 127 125 122 120 118 117 116 117 118 118 119 120 119 117 115 116 116 122 134 138 130 121 122 117
232 232 239 239 257 322 175 70 142 160 156 228 257 233 268 281 239 248 318 312 153 115 106 101 84 67 64 78 36 32 50 53 117 122 129 149 157 161 164 170 175 178 179 175 171 166 164 165 166 162 155 149 148 145 139 136 132 132 132 129 127 127 129 130 132 134 136 140 140 137 135 133 132 130 128 126 123 122 121 123 125 126 127 130 133 129 125 123 126 126 131 147 148 133 128 124 114
231 232 241 241 236 308 101 72 162 143 194 213 251 255 242 224 240 251 37 146 146 123 111 100 71 53 73 87 63 61 89 110 126 130 137 154 157 159 169 175 178 180 179 177 172 167 165 164 165 161 157 154 153 150 143 139 135 136 136 133 130 132 135 135 135 136 138 141 142 140 138 134 134 132 131 129 127 127 125 126 128 132 135 137 136 127 124 126 130 131 134 149 145 131 130 123 112
232 236 235 217 179 163 103 103 140 152 211 184 214 252 225 228 242 300 1 225 186 175 275 122 97 79 81 69 35 88 128 135 134 138 142 152 157 157 169 175 178 180 179 178 172 167 165 163 163 162 159 158 157 152 149 144 140 140 141 139 133 133 138 142 141 140 141 142 143 140 139 137 135 134 133 134 132 130 125 122 123 128 132 130 124 118 117 122 128 128 132 144 139 131 129 122 115
230 228 209 179 154 144 127 186 198 216 226 162 196 256 234 228 215 327 348 261 218 235 285 125 118 107 83 54 61 112 128 135 140 144 143 148 158 162 167 173 178 180 180 176 171 168 164 163 163 162 161 161 160 157 155 150 146 144 145 145 140 137 139 148 149 145 144 143 143 142 140 139 137 138 137 137 135 130 124 118 118 121 122 119 115 114 118 123 124 120 127 138 136 132 128 123 121
214 205 192 165 141 87 132 194 213 235 246 182 202 261 250 250 252 322 356 18 235 253 154 125 119 107 83 82 80 93 123 142 141 143 144 148 159 163 166 172 178 180 179 173 169 167 164 164 163 163 162 162 162 160 159 156 151 148 148 150 148 145 142 150 155 151 148 144 144 143 142 141 140 141 140 140 139 132 126 121 120 120 118 116 115 117 122 123 119 117 126 135 135 132 128 127 128
191 181 147 128 50 18 132 213 232 219 247 233 247 267 267 279 290 304 328 119 281 297 138 133 118 99 73 135 81 86 134 140 140 142 147 150 156 160 166 173 178 180 175 170 167 167 165 164 164 163 163 163 163 162 162 161 155 151 152 155 154 153 151 151 157 156 151 147 146 145 143 143 142 142 144 145 142 135 128 125 124 122 120 117 118 121 124 123 117 119 130 135 135 131 128 131 132
178 166 128 117 151 344 269 270 258 232 252 260 273 270 273 278 282 274 231 198 236 205 166 158 108 102 117 94 86 123 139 142 144 145 147 148 153 157 166 174 180 179 170 167 167 167 166 165 165 164 163 163 162 162 163 162 159 155 155 159 161 162 161 153 153 157 156 152 151 149 145 145 147 145 147 147 144 136 132 130 127 126 123 121 121 122 124 124 121 125 134 137 135 132 132 134 138
173 162 146 103 138 251 278 271 250 256 259 246 258 263 271 272 271 256 229 228 198 172 189 189 108 120 125 95 92 133 143 148 150 145 146 146 150 154 165 177 183 178 168 166 167 167 166 164 164 163 162 162 162 163 163 163 162 160 162 165 169 170 166 157 151 156 161 159 157 155 149 149 152 149 149 149 147 142 137 135 133 131 128 126 125 125 126 127 127 131 137 138 135 135 138 142 151
165 146 120 96 119 219 239 262 262 272 273 272 271 264 268 264 265 258 224 222 189 151 155 155 119 122 118 96 108 139 147 151 152 144 146 145 144 148 159 170 172 170 166 164 165 166 165 162 162 162 161 161 162 162 163 165 166 167 170 172 174 173 168 163 156 156 164 165 163 159 154 155 156 155 153 153 152 148 143 141 139 137 132 130 129 128 129 129 134 138 140 139 138 142 146 153 164
169 68 84 107 169 202 213 250 268 284 288 289 274 273 275 262 257 247 194 193 172 149 161 149 139 133 112 100 130 148 152 152 153 143 144 142 137 137 145 155 160 164 163 162 163 164 162 161 160 160 161 161 161 162 166 168 170 174 177 178 178 176 171 168 162 159 166 169 167 159 158 162 165 166 162 163 163 153 149 148 145 142 137 134 133 133 130 130 139 144 144 142 144 150 153 161 173
177 144 99 133 198 181 189 210 273 306 298 267 241 276 285 264 244 230 191 178 164 160 190 159 147 135 107 129 142 156 158 157 152 142 142 138 137 137 139 143 151 161 163 162 162 162 161 162 161 160 161 161 162 165 170 171 175 179 179 181 180 179 174 170 168 169 173 172 169 162 166 172 173 174 172 175 171 159 155 153 152 149 145 141 139 138 134 133 143 150 149 149 152 154 158 166 176
186 159 129 184 228 165 178 205 280 291 274 264 242 288 286 267 261 242 178 167 170 167 180 159 150 127 119 137 147 163 164 163 153 143 143 139 144 143 141 138 139 152 163 164 160 162 161 162 163 164 165 164 167 169 172 174 177 181 181 184 182 180 175 173 174 178 183 177 171 166 170 177 179 179 179 182 172 162 161 160 160 156 153 149 147 145 140 137 146 156 155 156 157 157 162 170 180
195 168 117 137 303 275 211 208 228 196 264 262 279 327 314 283 263 217 170 166 161 155 151 152 153 127 156 160 163 171 168 165 155 147 148 145 151 149 148 143 137 143 156 163 159 161 162 164 168 168 169 167 170 171 173 174 177 181 183 185 181 179 177 177 178 184 192 187 178 172 172 177 183 186 187 190 178 170 170 169 169 166 164 158 155 153 150 145 150 159 161 162 161 161 166 172 186
195 186 76 141 250 238 212 215 191 195 267 260 315 344 348 331 142 158 169 159 132 143 145 154 172 175 169 169 168 170 168 164 156 152 153 153 157 154 153 147 143 143 152 162 159 162 163 167 171 170 170 169 174 175 175 176 177 180 183 185 179 179 180 180 181 188 196 195 190 181 177 181 187 193 196 198 189 185 184 181 179 175 175 170 165 163 161 156 155 162 166 168 165 165 168 176 190
186 179 86 229 220 199 208 206 177 206 266 292 325 347 360 329 69 105 140 143 134 146 146 161 211 181 162 167 167 167 165 163 159 158 159 159 160 156 154 150 150 148 154 162 160 162 164 168 170 171 171 172 178 178 177 178 179 178 182 184 180 181 181 182 186 192 198 199 200 193 186 189 193 198 204 207 200 196 196 193 188 186 187 183 178 174 172 168 165 167 171 173 171 170 169 176 196
181 127 164 225 210 206 204 197 207 229 283 315 321 337 358 300 78 109 120 119 120 123 116 129 143 150 156 161 165 164 164 164 163 165 164 162 161 156 154 154 155 153 156 160 161 162 162 167 170 171 172 175 179 179 180 182 182 180 182 184 181 183 181 182 189 195 201 203 205 203 197 197 198 202 208 211 210 207 207 205 195 195 198 195 191 186 182 179 175 174 177 179 176 174 171 176 198
187 133 193 225 205 220 225 225 268 288 292 315 317 326 349 200 148 120 123 111 114 108 102 115 116 129 146 155 161 164 165 166 168 170 167 164 162 157 155 156 157 156 156 158 161 162 163 168 171 173 173 176 179 182 185 186 186 182 181 181 181 183 179 182 190 196 201 205 209 210 207 205 202 203 211 214 214 213 212 212 203 203 205 205 203 196 192 187 184 181 182 184 182 181 177 178 194
195 191 228 239 212 243 269 267 274 282 289 310 313 320 339 267 195 135 123 118 119 127 133 128 122 132 144 153 160 164 166 167 171 172 170 166 163 159 155 154 159 157 156 158 161 161 165 171 174 174 174 177 180 184 186 187 186 183 179 175 176 178 177 181 189 196 200 207 210 212 214 213 209 204 211 220 225 223 219 218 211 209 210 212 213 206 200 195 190 186 186 187 187 187 183 181 191
191 197 208 229 208 239 268 267 269 279 286 299 307 321 338 299 209 152 134 122 117 183 164 154 144 144 148 155 161 165 167 168 170 174 172 167 162 158 152 150 155 156 157 160 163 165 169 175 178 176 175 177 178 181 182 183 183 178 172 167 169 170 171 179 186 194 199 206 206 210 216 218 223 214 207 216 231 235 232 233 224 217 215 217 222 218 209 202 197 191 189 189 189 190 186 183 190
196 226 220 222 234 248 268 272 274 279 290 301 314 330 329 302 185 159 150 145 188 197 178 161 155 155 157 161 165 167 170 169 171 175 172 167 161 156 151 151 152 155 162 165 166 168 171 175 178 176 174 173 171 176 177 177 174 165 162 161 164 163 162 170 179 189 197 202 199 207 218 223 233 233 221 209 220 241 244 251 247 235 224 220 224 227 220 210 204 197 192 190 189 187 183 181 186
232 262 231 236 247 246 269 276 276 280 296 297 298 314 320 304 168 170 158 84 167 178 170 157 155 158 162 163 166 169 172 173 174 176 173 168 162 155 152 153 151 155 163 167 167 168 171 173 173 174 173 171 171 175 176 173 169 160 159 161 161 158 155 164 176 188 196 202 204 215 224 227 236 246 250 235 223 237 248 259 265 260 245 231 225 228 228 219 210 204 197 193 189 185 183 182 183
227 266 261 259 257 254 271 277 279 280 280 283 286 300 318 160 175 163 52 83 141 157 153 151 151 156 160 162 165 168 171 172 174 174 171 168 161 154 152 152 151 156 159 161 167 168 169 170 170 175 175 175 176 177 179 176 171 163 165 170 166 160 156 167 181 193 207 214 217 224 228 230 238 248 257 259 253 249 257 260 265 270 263 250 236 230 229 226 218 210 204 199 193 190 189 188 189
231 248 270 274 270 269 276 278 279 278 275 283 291 287 73 131 141 82 76 117 133 144 146 148 149 154 158 160 164 167 168 169 170 167 165 165 159 153 154 156 157 160 160 159 167 170 169 170 171 178 177 176 178 180 182 179 175 169 174 185 175 168 170 191 203 208 225 229 232 236 237 241 244 249 256 263 266 267 271 269 269 270 267 258 247 241 234 231 226 218 212 208 204 200 198 201 205
233 228 246 263 268 270 275 274 271 272 273 282 326 116 117 117 111 65 97 130 135 141 143 148 149 153 156 158 163 165 164 164 162 159 158 158 153 158 166 166 164 165 165 162 168 171 171 173 172 176 177 175 177 181 182 178 181 180 188 207 196 208 234 233 223 223 240 243 242 242 243 248 251 253 257 262 268 274 277 272 271 272 273 266 255 251 242 235 231 227 223 219 216 211 212 217 215
247 234 244 250 260 269 272 269 269 270 274 271 182 159 147 130 113 62 135 140 141 141 142 149 149 150 154 156 160 159 158 159 156 152 154 155 157 169 175 173 169 166 172 170 171 174 176 178 175 175 176 174 177 179 179 177 185 192 205 220 217 235 249 248 238 236 246 252 252 247 247 250 251 253 256 263 270 275 276 272 270 271 276 275 267 259 250 243 236 232 230 228 225 223 226 227 219
271 268 266 262 264 274 268 257 265 266 275 266 170 155 167 121 125 151 151 148 147 144 144 151 149 150 154 154 156 156 158 159 153 150 157 164 166 172 176 174 169 168 179 179 175 178 180 183 179 175 176 178 181 178 178 179 186 197 209 223 226 236 248 251 251 251 252 255 255 251 253 255 256 256 257 262 269 274 275 274 274 277 280 277 274 267 258 252 245 238 234 232 231 230 232 230 224
299 281 264 281 298 287 258 239 252 240 260 263 137 113 309 352 151 149 149 151 148 145 147 151 151 152 152 153 157 158 162 159 152 151 159 166 163 167 174 173 170 171 177 181 182 182 180 185 182 179 181 184 186 181 181 186 193 201 211 228 238 240 247 251 253 259 258 256 256 256 262 265 266 265 262 264 268 274 275 274 275 278 281 277 274 270 261 255 251 246 240 237 235 234 235 233 230
321 297 184 274 333 302 255 224 228 207 251 259 143 128 283 292 155 148 150 152 147 145 150 151 152 150 148 154 158 160 163 161 156 156 158 164 163 168 173 171 175 178 178 180 186 185 183 185 186 185 185 185 188 187 188 193 203 212 221 234 242 246 249 249 250 257 260 260 262 265 269 272 275 273 270 270 271 276 277 276 276 278 280 277 274 271 263 256 253 252 248 243 240 238 238 237 235
316 278 224 244 192 273 277 217 178 184 255 252 158 178 255 222 154 153 156 155 149 149 152 151 150 148 147 153 159 164 167 164 163 162 159 163 162 166 169 165 172 180 182 183 185 187 188 188 189 189 186 187 189 191 193 197 208 217 224 233 237 243 245 243 247 252 257 263 267 269 271 275 284 284 281 278 278 282 281 280 280 279 279 277 274 273 270 263 254 253 253 250 247 245 243 242 242
38 186 283 319 166 260 298 243 173 185 249 237 164 184 222 182 162 159 160 156 149 147 151 152 150 150 150 154 161 165 166 166 166 161 157 160 159 164 164 156 163 175 181 184 185 186 188 189 190 188 187 188 190 193 197 200 211 218 222 226 223 227 231 234 242 245 251 263 269 273 276 281 287 290 289 288 287 288 288 288 287 284 278 275 273 273 274 271 263 257 256 254 253 252 251 251 249
359 165 224 260 165 240 302 275 207 193 176 196 169 150 158 189 174 163 158 155 148 142 150 154 151 152 151 155 162 162 162 166 163 155 156 161 161 162 157 152 158 164 172 178 180 180 181 185 185 183 184 186 191 196 198 200 207 211 212 212 211 215 222 231 240 246 255 263 268 273 277 281 286 290 293 293 293 294 293 292 290 288 282 277 273 271 271 273 272 269 267 265 260 257 254 253 253
308 167 193 218 178 186 239 276 248 196 154 177 164 127 176 184 169 161 157 157 150 142 149 153 150 150 152 158 162 162 164 163 155 155 162 163 161 159 153 152 153 154 161 167 170 171 174 179 178 176 180 185 193 195 196 199 201 206 210 211 216 223 232 241 244 250 260 264 270 274 276 280 283 287 291 293 296 297 296 294 291 288 285 282 278 275 273 271 272 272 273 273 269 264 259 254 253
178 170 163 210 213 199 214 243 226 169 146 173 159 151 256 165 161 158 160 162 158 154 154 153 150 148 154 161 161 162 162 156 153 159 163 158 157 154 151 151 150 152 157 159 161 163 168 173 174 176 180 185 193 193 193 197 201 209 219 226 235 250 260 259 257 262 269 272 276 278 279 282 284 290 295 297 300 300 300 298 296 293 288 286 285 284 282 277 272 268 268 270 270 270 270 267 263
163 182 159 166 201 230 226 248 237 156 131 181 173 171 174 162 167 160 163 168 165 161 156 151 150 150 155 159 159 160 158 154 157 160 158 154 154 152 151 151 149 152 153 154 156 158 168 174 174 179 183 187 191 191 193 199 207 218 228 241 250 260 264 262 267 273 276 279 280 283 286 289 292 296 299 301 303 304 304 303 301 299 295 292 288 287 286 282 275 269 266 266 266 268 270 273 273
150 162 179 178 189 247 250 255 262 149 138 212 170 145 161 166 173 163 159 167 169 163 156 151 150 151 156 157 156 156 155 157 159 157 155 153 152 151 150 148 147 148 148 152 154 156 166 172 175 181 184 186 189 190 196 203 215 231 239 246 249 261 274 277 279 280 281 286 286 287 289 290 294 296 299 303 307 310 310 310 307 303 299 294 290 288 286 283 276 269 265 263 265 266 266 267 270
184 156 189 210 195 238 260 252 272 140 147 242 130 126 170 176 175 162 154 165 180 174 161 153 152 151 156 156 152 152 153 156 155 153 154 152 150 150 147 145 146 146 147 151 152 156 164 168 172 178 180 185 192 196 203 213 226 237 241 248 258 273 287 288 289 291 293 292 289 286 284 287 293 298 304 307 310 314 314 313 311 307 301 294 291 289 288 286 281 273 268 265 265 269 269 266 264
217 195 174 226 226 245 277 283 333 103 160 260 122 120 282 219 168 161 162 171 178 178 167 153 152 153 155 153 149 149 150 151 153 153 153 153 150 146 143 143 147 148 147 149 150 154 161 166 170 174 181 187 195 203 208 221 234 243 253 263 270 276 279 279 282 287 286 282 280 281 282 289 297 303 309 311 312 315 314 311 310 309 305 298 293 290 288 287 284 279 274 270 269 272 271 267 262
200 193 170 216 233 181 259 288 339 72 134 141 119 99 2 11 104 113 118 132 141 160 164 150 146 151 153 151 148 150 151 152 154 153 152 151 146 142 141 142 145 146 146 148 151 154 158 166 172 176 186 192 196 202 207 220 230 242 256 258 262 268 266 264 265 269 275 278 281 284 290 297 301 304 307 308 309 310 309 307 305 305 306 305 299 293 289 286 284 280 275 272 272 272 270 267 264
207 193 174 186 204 190 217 284 328 18 59 120 106 66 346 2 110 108 69 77 50 85 139 130 93 146 147 147 148 150 151 152 151 149 149 147 144 144 144 145 146 146 148 150 151 154 157 163 169 178 192 202 206 213 219 229 233 234 242 246 252 259 258 258 258 262 270 277 283 290 296 299 300 301 302 301 302 304 306 307 305 303 305 307 304 299 296 291 286 281 276 273 270 270 269 268 266
235 205 176 180 174 187 241 339 16 39 10 254 118 87 304 314 242 177 124 119 85 68 114 125 160 171 147 147 150 149 149 151 150 149 149 148 146 145 144 145 147 146 148 152 153 158 167 172 177 184 199 213 220 230 235 242 246 242 242 245 249 254 258 264 268 271 274 279 287 295 299 300 300 303 305 305 305 306 308 310 308 306 305 305 305 304 301 296 291 286 280 277 273 270 269 267 266
237 203 170 181 166 156 197 2 43 101 253 276 143 149 229 288 255 188 162 141 130 139 137 140 167 184 155 151 152 149 149 149 149 150 149 148 148 146 145 146 149 148 147 153 160 168 181 189 195 202 213 226 234 244 251 256 260 259 259 256 256 261 267 273 278 285 290 294 297 299 301 303 304 304 305 305 306 306 306 307 308 307 305 303 304 304 303 300 296 291 284 281 280 276 269 265 265
232 194 157 168 165 155 178 185 187 193 238 308 345 139 152 216 221 192 166 148 140 163 163 154 168 167 156 158 155 152 150 148 149 151 150 150 150 150 150 149 154 157 155 164 174 178 193 202 208 214 221 229 235 243 252 259 262 263 269 270 272 278 283 286 288 292 297 299 300 300 301 303 303 303 301 301 301 300 299 301 303 305 305 304 303 303 304 303 301 298 292 285 282 279 272 268 268
222 167 143 164 172 164 178 195 223 215 20 304 288 152 141 229 199 177 171 160 158 171 168 162 163 162 163 162 156 152 149 147 149 149 149 152 153 153 153 153 159 164 166 178 185 190 203 210 213 216 219 228 236 242 244 248 255 258 264 269 274 278 283 289 291 290 290 291 294 298 300 302 302 301 298 298 299 299 301 303 303 302 305 308 307 305 305 306 305 303 300 293 288 282 275 272 273
196 133 117 147 170 169 175 189 198 108 117 245 238 182 160 256 201 180 186 174 168 169 171 169 161 164 165 156 152 151 146 146 148 147 148 152 152 152 152 153 161 168 171 183 192 199 208 211 218 223 228 239 249 255 254 249 250 257 261 265 270 274 277 279 278 278 279 283 288 293 297 301 302 298 293 295 298 301 303 306 305 301 301 306 308 307 308 309 308 304 299 296 294 290 282 277 274
160 119 91 94 144 152 145 156 113 107 251 237 217 192 175 216 211 190 194 173 167 162 159 166 157 157 154 147 149 148 144 145 146 145 147 148 148 148 149 150 157 165 172 184 191 199 211 221 230 234 240 249 256 264 269 265 260 264 267 270 275 279 279 276 277 279 281 285 289 290 294 298 300 296 292 294 298 301 304 305 304 300 297 298 301 303 305 306 305 300 295 290 288 288 286 282 276
158 123 115 105 96 46 64 26 79 169 245 242 202 185 179 214 216 196 186 157 166 165 161 160 150 146 145 143 144 145 144 146 146 144 144 146 146 146 152 157 155 159 168 180 190 203 227 254 263 260 262 267 270 271 274 273 270 272 274 275 278 280 280 279 282 286 288 290 292 293 295 297 298 298 297 299 300 302 305 306 304 300 294 290 290 292 295 297 298 296 294 289 284 283 282 281 279
175 138 138 155 179 151 177 212 193 210 240 251 186 163 171 253 241 193 179 169 169 166 158 153 146 142 142 142 143 143 143 146 148 146 143 147 148 148 156 160 160 171 183 196 218 228 238 254 261 264 270 274 276 273 271 270 269 269 270 270 272 275 278 281 284 288 291 294 295 295 296 298 299 301 303 305 306 307 310 311 309 304 296 289 285 286 288 290 291 291 291 289 285 282 280 277 276
183 169 155 168 167 167 199 204 216 239 252 303 170 159 181 279 297 208 181 165 153 146 145 147 144 142 142 141 142 140 138 142 148 149 146 149 151 151 156 159 165 181 196 217 234 237 240 248 255 263 267 268 270 269 267 267 268 268 268 269 272 274 276 279 282 287 292 294 292 290 293 297 301 303 304 306 309 309 310 311 312 308 300 291 285 284 284 283 284 285 285 285 284 283 281 278 276
183 161 130 160 177 172 196 196 187 216 239 339 36 161 195 194 310 260 155 129 125 136 146 145 138 138 137 136 137 136 134 138 145 150 149 149 151 150 153 157 162 175 201 224 227 228 238 248 258 261 253 248 249 248 253 255 258 263 265 268 271 273 276 279 282 285 287 288 286 285 289 294 298 299 299 301 304 305 304 305 306 303 297 289 284 283 281 281 281 281 282 283 283 283 281 279 277
184 128 127 192 194 149 160 181 164 151 134 15 354 184 254 170 18 58 126 121 119 131 138 136 134 135 134 133 134 135 134 137 142 145 144 144 146 145 148 152 156 172 191 192 178 181 210 212 212 195 163 145 132 138 162 197 229 247 257 264 268 272 277 280 282 282 280 279 281 284 287 290 292 293 293 293 295 298 299 299 298 297 295 292 288 286 283 282 282 281 281 283 283 283 281 279 278
167 158 185 210 154 113 110 187 136 102 131 187 272 196 328 148 91 97 125 127 127 130 131 133 137 137 135 134 135 135 136 138 139 140 139 140 140 139 143 147 151 166 167 156 143 140 146 149 147 136 120 115 114 107 99 97 264 254 252 260 268 272 275 278 280 281 279 278 278 280 283 284 286 289 290 290 289 290 292 294 294 294 295 294 292 291 289 288 287 286 285 285 285 284 282 279 279
141 193 195 130 94 115 117 143 63 74 148 220 289 199 184 174 179 135 119 117 124 125 124 132 136 136 134 135 137 138 137 137 136 136 136 135 134 135 137 138 141 150 151 145 143 143 148 150 138 122 117 118 103 73 56 37 356 333 320 303 286 281 279 280 280 280 281 280 277 277 279 282 283 285 287 289 288 286 286 288 289 290 290 290 291 294 296 295 293 291 289 287 286 287 288 287 285
170 181 159 128 156 211 198 164 182 141 144 213 272 215 202 198 188 155 133 126 129 126 127 133 137 138 137 136 138 138 136 136 137 136 134 132 132 133 135 133 131 132 132 136 143 143 143 141 133 130 130 116 85 61 43 21 5 350 340 328 304 294 291 289 284 282 283 282 280 279 280 282 284 285 286 287 287 287 286 286 287 290 292 292 292 293 295 298 297 295 293 292 290 290 294 296 294
185 145 146 159 178 201 200 182 162 144 142 166 196 207 225 231 189 165 156 156 155 148 144 142 142 142 139 137 138 138 139 140 139 138 136 135 135 134 133 131 128 128 129 134 138 135 137 141 143 146 138 108 81 58 23 2 358 348 335 319 305 302 307 307 299 292 292 289 286 283 283 286 287 288 288 287 287 288 288 288 289 292 297 300 300 297 295 297 298 298 298 298 297 296 296 296 294
182 152 171 191 178 167 185 174 109 129 149 160 167 199 241 232 180 175 168 163 160 153 146 141 142 142 139 139 140 141 143 142 141 139 138 138 137 133 131 129 128 130 137 143 138 133 143 150 151 153 146 131 137 2 341 332 335 334 326 312 303 2 20 351 335 321 316 313 308 302 299 300 297 295 293 291 289 289 288 288 290 293 298 301 302 301 299 298 297 297 298 299 300 299 297 295 292
174 172 191 199 178 144 171 209 196 111 137 161 158 181 249 258 184 170 165 159 154 146 139 136 140 141 140 142 143 144 145 143 143 141 139 139 138 134 132 131 132 137 142 145 140 140 150 153 150 153 155 155 175 295 317 322 328 330 329 327 87 62 37 17 10 3 357 352 346 343 337 331 325 319 314 309 305 301 296 293 292 293 296 297 298 299 299 299 299 300 300 298 297 296 297 296 294